Regional Weather Roundup
Issued by NWS

Home | Current Version | Previous Version | Graphics & Text | Print | Product List | Glossary On
Versions: 1 2 3 4 5 6 7 8 9 10 11 12 13 14 15 16 17 18 19 20 21 22 23 24 25 26 27 28 29 30 31 32 33 34 35 36 37 38 39 40 41 42 43 44 45 46 47 48 49 50
000
ASUS43 KMKX 291600
RWRWI

WISCONSIN REGIONAL WEATHER ROUNDUP
NATIONAL WEATHER SERVICE MILWAUKEE/SULLIVAN WI
1100 AM CDT MON AUG 29 2016

NOTE: "FAIR" INDICATES FEW OR NO CLOUDS BELOW 12,000 FEET WITH NO
SIGNIFICANT WEATHER AND/OR OBSTRUCTIONS TO VISIBILITY.

WIZ001-002-006>008-014>016-023>028-291700-
NORTHWEST WISCONSIN

CITY           SKY/WX    TMP DP  RH WIND       PRES   REMARKS
SUPERIOR ARPT  CLOUDY    70  63  80 CALM      30.13R
ASHLAND        MOSUNNY   74  65  73 SW10      30.16R
HAYWARD        CLOUDY    71  63  75 S8        30.15R
SIREN          CLOUDY    72  66  82 W7        30.16F
CUMBERLAND     MOSUNNY   72  64  78 S9        30.22F
RICE LAKE      MOSUNNY   76  66  71 SE12      30.23F
CHETEK         NOT AVBL
LADYSMITH      CLOUDY    74  68  81 S9        30.25F
EAU CLAIRE     NOT AVBL
MENOMONIE      CLOUDY    76  69  80 SE6       30.25F
NEW RICHMOND   CLOUDY    78  68  72 SE7       30.24F
OSCEOLA        MOSUNNY   77  71  81 S8        30.25F
$$

WIZ003>005-009-010-017-018-291700-
NORTH CENTRAL WISCONSIN

CITY           SKY/WX    TMP DP  RH WIND       PRES   REMARKS
MANITOWISH WTR NOT AVBL
ARBOR VITAE    CLOUDY    72  66  82 S13       30.22F
WOODRUFF       CLOUDY    72  66  82 S13       30.22F
RHINELANDER    CLOUDY    72  65  78 S7        30.25F
EAGLE RIVER    CLOUDY    70  65  83 S8        30.22F
LAND O LAKES   CLOUDY    69  65  85 S7        30.23F
PHILLIPS       MOSUNNY   71  67  88 S12       30.21F
TOMAHAWK       CLOUDY    70  65  83 CALM      30.27S
MEDFORD        MOSUNNY   73  68  82 CALM      30.27S
MERRILL        MOSUNNY   74  67  80 CALM      30.27S
$$

WIZ029-030-035-036-043>047-291700-
CENTRAL WISCONSIN

CITY           SKY/WX    TMP DP  RH WIND       PRES   REMARKS
WAUSAU         CLOUDY    72  67  84 S5        30.26F
MOSINEE        CLOUDY    72  70  94 S3        30.29R
MARSHFIELD     PTSUNNY   75  67  76 CALM      30.27R
STEVENS POINT  MOSUNNY   73  67  82 CALM      30.28S
WAUPACA        MOSUNNY   79  70  73 CALM      30.26F HX  82
WAUTOMA        MOSUNNY   77  70  79 SW5       30.27S
WISC RAPIDS    CLOUDY    78  69  73 W6        30.28S HX  80
CAMP DOUGLAS   NOT AVBL
$$

WIZ011>013-019>022-031-037>040-048>050-291700-
NORTHEAST WISCONSIN

CITY           SKY/WX    TMP DP  RH WIND       PRES   REMARKS
ANTIGO         CLOUDY    69  67  93 CALM      30.29F
SHAWANO        MOSUNNY   78  68  71 SW5       30.26F HX  80
OCONTO         NOT AVBL
STURGEON BAY   SUNNY     75  66  73 CALM      30.27F
GREEN BAY      PTSUNNY   76  69  79 MISG      30.27S
MANITOWOC      NOT AVBL
APPLETON       PTSUNNY   77  66  69 W7        30.26R
CLINTONVILLE   CLOUDY    77  66  69 SW6       30.26F
OSHKOSH        CLOUDY    79  70  74 VRB3      30.26S HX  82
$$

WIZ032>034-041-042-053>061-291700-
SOUTHWEST WISCONSIN

CITY           SKY/WX    TMP DP  RH WIND       PRES   REMARKS
LA CROSSE      MOSUNNY   82  71  69 SE5       30.24S HX  86
SPARTA         MOSUNNY   77  69  74 CALM      30.26S
VIROQUA        MOSUNNY   74  69  85 CALM      30.28R
BOSCOBEL       CLOUDY    74  70  87 CALM      30.26R
PRAIRIE DU CHI MOSUNNY   74  69  86 CALM      30.25R
PLATTEVILLE    CLOUDY    72  72  99 E6        30.26R
$$

WIZ056-057-062-063-064-067-068-291700-
SOUTH CENTRAL WISCONSIN

CITY           SKY/WX    TMP DP  RH WIND       PRES   REMARKS
REEDSBURG      NOT AVBL
BARABOO/DELLS  CLOUDY    76  68  76 CALM      30.27S
LONE ROCK      NOT AVBL
MINERAL POINT  CLOUDY    73  72  94 SE3       30.27R FOG
MADISON        CLOUDY    78  68  71 SW3       30.26R HX  80
MIDDLETON      CLOUDY    77  69  75 CALM      30.28R
WATERTOWN      SUNNY     78  70  77 CALM      30.26S HX  80
MONROE         CLOUDY    75  70  83 CALM      30.27R
JANESVILLE     PTSUNNY   81  70  69 SE7       30.25R HX  84
$$

WIZ051-052-058>065-066-070>072-291700-
SOUTHEAST WISCONSIN

CITY           SKY/WX    TMP DP  RH WIND       PRES   REMARKS
MILWAUKEE      MOSUNNY   78  65  63 VRB6      30.27S HX  80
WAUKESHA       SUNNY     77  66  69 SE5       30.29R
MILWAUKEE/TIMM SUNNY     77  63  61 E5        30.28R
RACINE         SUNNY     78  66  66 E7        30.29R HX  80
BURLINGTON     SUNNY     76  67  73 E5        30.27R
KENOSHA        SUNNY     79  68  69 E7        30.27R HX  81
FOND DU LAC    MOSUNNY   79  69  71 CALM      30.27R HX  81
SHEBOYGAN      SUNNY     76  67  73 VRB3      30.27S
WEST BEND      MOSUNNY   77  68  73 CALM      30.28R
JUNEAU         MOSUNNY   76  68  75 CALM      30.28R
$$

LSZ147-162-291700-
LAKE SUPERIOR

STATION/POSITION TIME  TEMP    WIND        PRES    WAVE
                       AIR SEA DIR/SP/G            HT/PER
                 (UTC) (F)     (DEG/KT/KT) (MB)    (FT/S)
W MID LAKE BUOY  1450   67 67  270/  8/ 10 1020.0S   2/ 4
DEVILS ISLAND    1500   66     360/  4/  5 1020.2R
PORT WING        1540   70     230/  5/  7 1020.3S
SAXON HARBOR     1500   70     280/  3/  8 1020.7R
$$

LMZ867-665-643>646-291700-
LAKE MICHIGAN

STATION/POSITION TIME  TEMP    WIND        PRES    WAVE
                       AIR SEA DIR/SP/G            HT/PER
                 (UTC) (F)     (DEG/KT/KT) (MB)    (FT/S)
CHAMBERS ISLAND  1540   75     150/  2/  9 1024.0F
N MID LAKE BUOY  1450   69 71  170/ 10/ 12 1024.5S   1/ 3
NORTHPORT PIER   1500   72     160/  4/  8 1025.1R
KEWAUNEE LAKESHO 1500   69      40/  2/  5 1024.6R
SHEBOYGAN LAKESH 1500   64     360/  6/  6 1024.6R
PORT WASHINGTON  1500   71      50/  4/  5 1025.4
ATWATER BUOY     1500   65     360/  4/  4   N/A
MILWAUKEE LAKESH 1510   67      50/  3/  3   N/A
S MID LAKE BUOY  1450   73 75  100/  8/ 10 1023.8R   0
KENOSHA   LAKESH 1500   68      20/  5/  5 1024.4R
$$

TC  - TEMPERATURE IN CELSIUS
VSB - VISIBILITY IN STATUTE MILES
WCI - WIND CHILL INDEX
HX  - HEAT INDEX





USA.gov is the U.S. government's official web portal to all federal, state and local government web resources and services.